{"data":{"norad_id":40141,"epoch":"2026-09-19T21:15:38.617632Z","epoch_age_seconds":74948,"freshness":"FRESH","line1":"1 40141U 14052A   26262.88586363 -.00000366  00000+0  00000+0 0  9991","line2":"2 40141   0.0162 215.4879 0000975 303.2942 278.8405  1.00273628 44024","mean_motion":1.00273628,"eccentricity":9.75e-5,"inclination_deg":0.0162,"raan_deg":215.4879,"arg_perigee_deg":303.2942,"mean_anomaly_deg":278.8405,"bstar":0,"rev_number":4402,"period_min":1436.0705089877,"perigee_km":35781.967298309,"apogee_km":35790.189320294,"semimajor_km":42164.215309301,"source":"CELESTRAK","updated_at":"2026-09-20T09:00:35.211723Z"}}